CW4541 Weather Reports


time (UTC)temp
C
wind
direction
speed
KPH
gust
KPH
rain 1hr
cm
rain 24hr
cm
rain mn
cm
humidity
%
barometer
mb
20260904020606 19 17 0.0 0.0 0.00 0.00 0.00 22 1018.5
20260904020114 19 17 0.0 0.0 0.00 0.00 0.00 21 1018.5
20260904010113 23 13 1.6 12.9 0.00 0.00 0.00 14 1018.8
20260904000607 25 183 1.6 14.5 0.00 0.00 0.00 13 1018.9
20260904000113 25 198 1.6 12.9 0.00 0.00 0.00 13 1018.9
20260903230606 25 191 4.8 14.5 0.00 0.00 0.00 14 1019.2
20260903230113 25 208 3.2 14.5 0.00 0.00 0.00 14 1019.1
20260903210606 25 22 3.2 16.1 0.00 0.00 0.00 17 1020.1
20260903210112 25 24 1.6 9.7 0.00 0.00 0.00 18 1020.1
20260903200607 24 18 1.6 16.1 0.00 0.00 0.00 18 1020.6
20260903200113 24 17 4.8 16.1 0.00 0.00 0.00 18 1020.7
20260903190113 23 14 3.2 14.5 0.00 0.00 0.00 20 1021.2
20260903170607 21 14 3.2 12.9 0.00 0.00 0.00 29 1022.1
20260903170112 21 13 4.8 16.1 0.00 0.00 0.00 27 1022.1
20260903160607 18 14 3.2 19.3 0.00 0.00 0.00 34 1022.0
20260903160112 18 13 4.8 19.3 0.00 0.00 0.00 32 1022.1
20260903150606 16 166 3.2 16.1 0.00 0.00 0.00 49 1021.7
20260903140606 13 172 1.6 9.7 0.00 0.00 0.00 61 1021.9
20260903140112 13 189 0.0 8.0 0.00 0.00 0.00 62 1021.9
20260903130609 10 202 0.0 1.6 0.00 0.00 0.00 68 1021.4
20260903130111 10 223 0.0 1.6 0.00 0.00 0.00 67 1021.3
20260903120112 10 203 0.0 3.2 0.00 0.00 0.00 67 1021.2
20260903110606 10 142 1.6 9.7 0.00 0.00 0.00 69 1020.7
20260903110112 10 132 0.0 9.7 0.00 0.00 0.00 71 1020.7
20260903100606 10 200 0.0 1.6 0.00 0.00 0.00 71 1020.8
20260903090606 11 186 0.0 3.2 0.00 0.00 0.00 70 1020.3
20260903090112 11 196 0.0 3.2 0.00 0.00 0.00 70 1020.4
20260903080606 11 192 0.0 1.6 0.00 0.00 0.00 71 1020.6
20260903080111 11 199 0.0 1.6 0.00 0.00 0.00 71 1020.7
20260903070606 12 196 0.0 0.0 0.00 0.00 0.00 66 1020.5
20260903070112 12 196 0.0 0.0 0.00 0.00 0.00 65 1020.5
20260903060111 12 182 0.0 0.0 0.00 0.00 0.00 63 1020.1
20260903050606 13 28 0.0 1.6 0.00 0.00 0.00 59 1020.1
20260903040606 13 39 0.0 1.6 0.00 0.00 0.00 60 1020.0
20260903030606 15 30 0.0 0.0 0.00 0.00 0.00 52 1019.7
20260903030112 15 28 0.0 0.0 0.00 0.00 0.00 50 1019.6